Regional Weather Roundup
Issued by NWS

Home | Current Version | Previous Version | Graphics & Text | Print | Product List | Glossary On
Versions: 1 2 3 4 5 6 7 8 9 10 11 12 13 14 15 16 17 18 19 20 21 22 23 24 25 26 27 28 29 30 31 32 33 34 35 36 37 38 39 40 41 42 43 44 45 46 47 48 49 50
000
ASUS45 KABQ 151910
RWRNM
WEATHER ROUNDUP FOR NEW MEXICO
NATIONAL WEATHER SERVICE ALBUQUERQUE NM
100 PM MDT MON SEP 15 2014

NOTE: "FAIR" MEANS FEW OR NO CLOUDS BELOW 12,000 FEET AGL WITH NO
       SIGNIFICANT WEATHER OR OBSTRUCTIONS TO VISION.

      THIS PRODUCT IS RELEASED AS TWO VERSIONS.  ONE VERSION NEAR
      THE TOP OF THE HOUR CONTAINING PRELIMINARY DATA FROM ALBUQUERQUE
      AND OTHER STATIONS.  A FINAL VERSION WITH ADDITIONAL DATA IS
      ISSUED ABOUT 10 MINUTES AFTER THE HOUR.

NMZ501-503-504-510>518-152000-
NORTHWEST PLATEAU/NORTHCENTRAL MOUNTAINS

CITY           SKY/WX    TMP DP  RH WIND       PRES   REMARKS
FARMINGTON     SUNNY     81  47  30 VRB5      30.22F
LOS ALAMOS     SUNNY     76  38  24 NE3       30.34F
SANTA FE       SUNNY     79  47  32 S5        30.27F
ANGEL FIRE     FAIR      73  30  21 E17G23    30.43S

$$
NMZ402-403-502-505>509-152000-
WESTCENTRAL MOUNTAINS/SOUTHWEST MOUNTAINS

CITY           SKY/WX    TMP DP  RH WIND       PRES   REMARKS
GALLUP         SUNNY     81  43  26 MISG      30.28F
GRANTS         SUNNY     79  46  31 SE6       30.31F
SILVER CITY    SUNNY     77  54  44 S13       30.25F

$$
NMZ407-409-411-412-152000-
SOUTHERN DESERTS

CITY           SKY/WX    TMP DP  RH WIND       PRES   REMARKS
LORDSBURG      FAIR      81  55  41 SE9G21    30.15F
DEMING         MOSUNNY   80  57  45 E13G20    30.17F
LAS CRUCES     MOSUNNY   76  58  53 SE8       30.20F
HOLLOMAN AFB   SUNNY     78  57  47 S6        30.17F
ALAMOGORDO     PTSUNNY   77  57  50 CALM      30.19F
T OR C         SUNNY     79  55  43 E6        30.20F

$$
NMZ519>523-152000-
CENTRAL VALLEYS/CENTRAL HIGHLANDS

CITY           SKY/WX    TMP DP  RH WIND       PRES   REMARKS
ALBUQUERQUE    MOSUNNY   76  54  46 W5        30.23F
DOUBLE EAGLE   MOSUNNY   77  54  44 SE5       30.27F
MORIARTY ARPT  FAIR      78  51  38 CALM      30.29F
CLINES CORNERS SUNNY     78  45  30 NE16G23   30.32F
BELEN          FAIR      79  53  40 E7        30.22F
SOCORRO        FAIR      82  55  39 E8        30.20F

$$
NMZ524>526-539-540-152000-
SOUTHCENTRAL MOUNTAINS

CITY           SKY/WX    TMP DP  RH WIND       PRES   REMARKS
RUIDOSO        MOSUNNY   70  55  60 SE8       30.35F

$$
NMZ527>531-152000-
NORTHEAST HIGHLANDS/NORTHEAST PLAINS

CITY           SKY/WX    TMP DP  RH WIND       PRES   REMARKS
LAS VEGAS      SUNNY     75  44  33 E15G22    30.35S
RATON          PTSUNNY   73  49  42 E13       30.33R
CLAYTON        CLOUDY    60  54  80 N18G28    30.31R

$$
NMZ532>537-152000-
EASTCENTRAL PLAINS

CITY           SKY/WX    TMP DP  RH WIND       PRES   REMARKS
TUCUMCARI      MOSUNNY   78  57  48 VRB7      30.21F
CANNON AFB     MOSUNNY   76  59  54 S8        30.23S
CLOVIS AIRPORT   N/A     73  59  60 S8        30.26S

$$
NMZ028-029-538-152000-
SOUTHEAST PLAINS

CITY           SKY/WX    TMP DP  RH WIND       PRES   REMARKS
ROSWELL        CLOUDY    68  61  78 SE8       30.21F
CARLSBAD       CLOUDY    71  68  90 S8        30.19F
HOBBS          CLOUDY    70  64  83 S5        30.23F


$$


USA.gov is the U.S. government's official web portal to all federal, state and local government web resources and services.